Location: Amsterdam
(30.7274°N, 84.4357°W)
Time: 21:39:19
(UTC+00:00)

Explorer 11/Cluster Stage 4 - Pass Details

Date: 21 February 2026
Orbit: 463 x 1176 km, 28.8° (Epoch: 9 March)

Event Time Altitude Azimuth Distance (km) Brightness Sun altitude
Rises 20:27:45 0° 272° (W) 2,721 9.9 34.4°
Reaches altitude 10° 20:30:12 10° 266° (W) 1,744 9.3 34.0°
Maximum altitude 20:33:57 44° 193° (SSW) 666 7.5 33.4°
Drops below altitude 10° 20:37:24 10° 120° (ESE) 1,602 8.1 32.8°
Sets 20:39:34 0° 113° (ESE) 2,469 8.9 32.4°
